#timestamp,LO_Frequency,Hit,StdDev 
1677049215.4,286047001.9,N
1677049235.2,286047002.2,N
1677049255.0,286047002.1,N
1677049256.0,286047002.1,N
1677049275.8,286047001.6,N
1677049295.6,286047002.7,N
1677049315.5,286047004.2,N
1677049335.3,286047003.4,N
1677049355.1,286047003.8,N
1677049375.9,286047003.7,N
1677049395.7,286047001.8,N
1677049415.6,286046999.7,N
1677049435.4,286047002.8,N
1677049455.2,286047001.1,N
1677049475.1,286046998.2,N
1677049476.0,286046998.2,N
1677049495.8,286047001.5,N
1677049515.7,286047001.4,N
1677049535.5,286047002.2,N
1677049555.3,286047003.7,N
1677049575.2,286046998.6,N
1677049595.0,286046998.5,N
1677049595.9,286046998.5,N
1677049615.7,286047000.7,N
1677049635.6,286046998.2,N
1677049655.4,286047000.5,N
1677049675.3,286046998.7,N
1677049695.1,286046999.2,N
1677049696.0,286046999.2,N
1677049715.8,286047000.1,N
1677049735.7,286047000.0,N
1677049755.5,286047000.9,N
1677049775.4,286047000.7,N
1677049795.2,286047004.1,N
1677049815.0,286047005.1,N
1677049815.9,286047005.1,N
1677049835.8,286047004.2,N
1677049855.6,286046999.8,N
1677049875.4,286047000.9,N
1677049895.3,286046998.7,N
1677049915.1,286046998.9,N
1677049935.9,286046999.1,N
1677049955.7,286046996.8,N
1677049975.5,286046997.6,N
1677049995.4,286046995.3,N
1677050015.2,286046998.9,N
1677050035.1,286047001.2,N
1677050036.0,286047001.2,N
1677050055.8,286046999.7,N
1677050075.6,286047001.0,N
1677050095.5,286047000.5,N
1677050115.3,286047002.7,N
1677050135.2,286047000.1,N
1677050155.9,286047002.3,N
1677050175.7,286047004.1,N
1677050195.6,286047004.1,N
1677050215.4,286047003.8,N
1677050235.2,286047005.7,N
1677050255.1,286047004.7,N
1677050256.0,286047004.7,N
1677050275.8,286047003.9,N
1677050295.7,286047000.3,N
1677050315.5,286047001.4,N
1677050335.3,286047002.9,N
1677050355.2,286047001.3,N
1677050375.0,286047003.4,N
1677050375.9,286047003.4,N
1677050395.7,286047001.7,N
1677050415.6,286047000.1,N
1677050435.4,286047002.5,N
1677050455.3,286047000.8,N
1677050475.1,286047002.2,N
1677050476.0,286047002.2,N
1677050495.8,286047001.7,N
1677050515.7,286047004.0,N
1677050535.5,286047005.9,Y
1677050555.3,286047001.2,P
1677050575.2,286046999.1,N
1677050595.0,286047000.5,N
1677050595.9,286047000.5,N
1677050615.8,286046999.9,N
1677050635.6,286046999.8,N
1677050655.4,286047000.4,N
1677050675.3,286047000.1,N
1677050695.1,286046998.8,N
1677050715.9,286046996.5,Y
1677050735.7,286046996.9,P
1677050755.5,286046995.1,N
1677050775.4,286046997.4,N
1677050795.2,286046997.2,N
1677050815.0,286047000.9,N
1677050815.9,286047000.9,N
1677050835.8,286046999.4,N
1677050855.6,286046997.2,N
1677050875.5,286046999.4,N
1677050895.3,286046996.7,N
1677050915.1,286046996.6,N
1677050935.9,286046996.9,N
1677050955.7,286046996.5,N
1677050975.5,286047001.2,N
1677050995.4,286047000.0,N
1677051015.2,286046998.7,N
1677051035.1,286046997.1,N
1677051036.0,286046997.1,N
1677051055.8,286046999.0,N
1677051075.6,286046997.0,N
1677051095.5,286046997.1,N
1677051115.3,286046996.6,N
1677051135.1,286047002.1,N
1677051155.9,286046999.2,N
1677051175.7,286047000.8,N
1677051195.6,286046997.0,N
1677051215.4,286047001.2,N
1677051235.2,286046998.4,N
1677051255.1,286047002.3,N
1677051256.0,286047002.3,N
1677051275.8,286047000.2,N
1677051295.6,286047002.3,N
1677051315.5,286047000.6,N
1677051335.3,286046999.0,N
1677051355.2,286046995.6,N
1677051375.9,286046997.9,N
1677051395.7,286046999.5,N
1677051415.6,286047000.9,N
1677051435.4,286047000.7,N
1677051455.2,286046999.9,N
1677051475.1,286047000.5,N
1677051476.0,286047000.5,N
1677051495.8,286046996.6,N
1677051515.7,286046997.1,N
1677051535.5,286046997.4,N
1677051555.4,286046994.9,N
1677051575.2,286046996.5,N
1677051595.0,286046996.6,N
1677051595.9,286046996.6,N
1677051615.8,286046999.2,N
1677051635.6,286046999.5,N
1677051655.4,286047001.2,N
1677051675.3,286047001.8,N
1677051695.1,286047003.6,N
1677051715.9,286047001.9,N
1677051735.7,286046999.7,N
1677051755.5,286046999.4,N
1677051775.4,286047001.0,N
1677051795.2,286046994.9,N
1677051815.0,286046996.6,N
1677051815.9,286046996.6,N
1677051835.8,286047000.3,N
1677051855.6,286046997.0,N
1677051875.5,286046999.3,N
1677051895.3,286046998.4,N
1677051915.1,286046998.3,N
1677051935.9,286047001.2,N
1677051955.7,286047000.1,N
1677051975.6,286047004.3,N
1677051995.4,286046998.5,N
1677052015.2,286046996.5,N
1677052035.1,286046998.1,N
1677052036.0,286046998.1,N
1677052055.8,286046999.1,N
1677052075.6,286046997.4,N
1677052095.5,286046997.5,N
1677052115.3,286046999.2,N
1677052135.2,286046999.3,N
1677052155.9,286046998.3,N
1677052175.7,286047001.2,N
1677052195.6,286047000.0,N
1677052215.4,286047000.5,N
1677052235.2,286047002.0,N
1677052255.1,286047004.2,N
1677052256.0,286047004.2,N
1677052275.8,286047003.5,N
1677052295.7,286047000.1,N
1677052315.5,286047000.7,N
1677052335.3,286047000.4,N
1677052355.2,286047000.9,N
1677052375.0,286047002.7,N
1677052375.9,286047002.7,N
1677052395.7,286047001.8,N
1677052415.6,286047001.7,N
1677052435.4,286047003.4,N
1677052455.3,286047003.5,N
1677052475.1,286046999.7,N
1677052495.8,286047000.9,N
1677052515.7,286046999.7,N
1677052535.5,286047004.2,N
1677052555.3,286047005.8,N
1677052575.2,286047003.6,N
1677052595.0,286047000.1,N
1677052595.9,286047000.1,N
1677052615.8,286046998.1,N
1677052635.6,286046996.5,N
1677052655.4,286046997.0,N
1677052675.3,286047000.3,N
1677052695.1,286047000.9,N
1677052715.9,286047002.8,N
1677052735.7,286047000.9,N
1677052755.5,286046999.1,N
1677052775.4,286046996.7,N
1677052795.2,286046995.5,N
